Time,TemperatureF,DewpointF,PressureIn,WindDirection,WindDirectionDegrees,WindSpeedMPH,WindSpeedGustMPH,Humidity,HourlyPrecipIn,Conditions,Clouds,dailyrainin,SoftwareType,DateUTC
2013-10-01 00:08:00,50.4,45.6,29.85,South,180,2.0,2.0,84,0.00,,,0.00,WeatherCatV1.21B27,2013-09-30 23:08:00,
2013-10-01 00:18:00,50.4,45.6,29.84,SSE,157,0.0,2.9,83,0.00,,,0.00,WeatherCatV1.21B27,2013-09-30 23:18:00,
2013-10-01 00:28:00,50.2,45.2,29.85,South,180,2.5,2.9,83,0.00,,,0.00,WeatherCatV1.21B27,2013-09-30 23:28:00,
2013-10-01 00:38:00,50.4,45.3,29.85,South,180,2.9,2.9,83,0.00,,,0.00,WeatherCatV1.21B27,2013-09-30 23:38:00,
2013-10-01 00:48:00,50.5,45.5,29.85,SSE,157,1.8,5.6,83,0.00,,,0.00,WeatherCatV1.21B27,2013-09-30 23:48:00,
2013-10-01 00:58:00,50.4,45.3,29.85,SSE,157,2.2,5.4,83,0.00,,,0.00,WeatherCatV1.21B27,2013-09-30 23:58:00,
2013-10-01 01:08:00,50.2,45.2,29.85,SSE,157,2.0,3.8,83,0.00,,,0.00,WeatherCatV1.21B27,2013-10-01 00:08:00,
2013-10-01 01:18:00,50.2,45.2,29.85,SSE,157,2.9,5.1,83,0.00,,,0.00,WeatherCatV1.21B27,2013-10-01 00:18:00,
2013-10-01 01:28:00,50.2,45.2,29.85,South,180,2.5,3.6,83,0.00,,,0.00,WeatherCatV1.21B27,2013-10-01 00:28:00,
2013-10-01 01:38:00,50.0,45.0,29.85,SSE,157,1.6,3.4,83,0.00,,,0.00,WeatherCatV1.21B27,2013-10-01 00:38:00,
2013-10-01 01:48:00,49.8,44.8,29.86,SE,135,1.6,5.1,83,0.00,,,0.00,WeatherCatV1.21B27,2013-10-01 00:48:00,
2013-10-01 01:58:00,49.8,44.8,29.86,SSE,157,0.0,5.6,83,0.00,,,0.00,WeatherCatV1.21B27,2013-10-01 00:58:00,
2013-10-01 02:08:00,49.6,44.6,29.86,South,180,0.0,2.0,83,0.00,,,0.00,WeatherCatV1.21B27,2013-10-01 01:08:00,
2013-10-01 02:18:00,49.6,44.6,29.86,South,180,0.0,2.0,83,0.00,,,0.00,WeatherCatV1.21B27,2013-10-01 01:18:00,
2013-10-01 02:28:00,49.6,44.6,29.86,South,180,0.0,2.9,83,0.00,,,0.00,WeatherCatV1.21B27,2013-10-01 01:28:00,
2013-10-01 02:38:00,49.6,44.6,29.86,SE,135,1.8,3.8,83,0.00,,,0.00,WeatherCatV1.21B27,2013-10-01 01:38:00,
2013-10-01 02:48:00,49.3,44.9,29.86,SSW,202,0.0,1.8,84,0.00,,,0.00,WeatherCatV1.21B27,2013-10-01 01:48:00,
2013-10-01 02:58:00,49.8,45.1,29.86,SE,135,0.0,2.5,84,0.00,,,0.00,WeatherCatV1.21B27,2013-10-01 01:58:00,
2013-10-01 03:08:00,49.8,45.1,29.86,SSW,202,3.1,3.4,84,0.00,,,0.00,WeatherCatV1.21B27,2013-10-01 02:08:00,
2013-10-01 03:18:00,50.2,45.2,29.86,SSE,157,0.0,2.0,83,0.00,,,0.00,WeatherCatV1.21B27,2013-10-01 02:18:00,
2013-10-01 03:28:00,50.2,45.2,29.86,SSE,157,0.0,0.0,83,0.00,,,0.00,WeatherCatV1.21B27,2013-10-01 02:28:00,
2013-10-01 03:38:00,50.2,45.2,29.86,NNW,337,0.0,2.7,83,0.00,,,0.00,WeatherCatV1.21B27,2013-10-01 02:38:00,
2013-10-01 03:48:00,50.2,45.2,29.86,South,180,0.0,0.0,83,0.00,,,0.00,WeatherCatV1.21B27,2013-10-01 02:48:00,
2013-10-01 03:58:00,50.2,45.2,29.86,South,180,0.0,0.0,83,0.00,,,0.00,WeatherCatV1.21B27,2013-10-01 02:58:00,
2013-10-01 04:08:00,50.2,45.2,29.86,South,180,0.0,1.6,83,0.00,,,0.00,WeatherCatV1.21B27,2013-10-01 03:08:00,
2013-10-01 04:18:00,50.2,45.3,29.85,South,180,1.3,2.0,83,0.00,,,0.00,WeatherCatV1.21B27,2013-10-01 03:18:00,
2013-10-01 04:28:00,50.4,45.3,29.85,SW,225,0.0,1.6,83,0.00,,,0.00,WeatherCatV1.21B27,2013-10-01 03:28:00,
2013-10-01 04:38:00,50.4,45.3,29.85,South,180,1.3,3.1,83,0.00,,,0.00,WeatherCatV1.21B27,2013-10-01 03:38:00,
2013-10-01 04:48:00,50.4,45.3,29.85,South,180,0.0,6.0,83,0.00,,,0.00,WeatherCatV1.21B27,2013-10-01 03:48:00,
2013-10-01 04:58:00,50.4,45.3,29.85,South,180,2.2,5.4,83,0.00,,,0.00,WeatherCatV1.21B27,2013-10-01 03:58:00,
2013-10-01 05:08:00,50.5,45.5,29.85,SSE,157,2.7,3.4,82,0.00,,,0.00,WeatherCatV1.21B27,2013-10-01 04:08:00,
2013-10-01 05:28:00,50.7,45.4,29.85,SSE,157,1.3,5.1,82,0.00,,,0.00,WeatherCatV1.21B27,2013-10-01 04:28:00,
2013-10-01 05:38:00,50.7,45.4,29.85,South,180,4.0,4.0,82,0.00,,,0.00,WeatherCatV1.21B27,2013-10-01 04:38:00,
2013-10-01 05:48:00,50.7,45.4,29.85,SSE,157,4.7,4.7,82,0.00,,,0.00,WeatherCatV1.21B27,2013-10-01 04:48:00,
2013-10-01 05:58:00,50.5,45.2,29.85,SSE,157,2.2,2.2,82,0.00,,,0.00,WeatherCatV1.21B27,2013-10-01 04:58:00,
2013-10-01 06:18:00,50.5,44.9,29.85,South,180,2.5,4.2,81,0.00,,,0.00,WeatherCatV1.21B27,2013-10-01 05:18:00,
2013-10-01 06:28:00,50.5,44.9,29.85,South,180,0.0,3.8,81,0.00,,,0.00,WeatherCatV1.21B27,2013-10-01 05:28:00,
2013-10-01 06:38:00,50.7,45.1,29.85,South,180,0.0,2.9,81,0.00,,,0.00,WeatherCatV1.21B27,2013-10-01 05:38:00,
2013-10-01 06:48:00,50.7,45.1,29.85,South,180,3.8,3.8,81,0.00,,,0.00,WeatherCatV1.21B27,2013-10-01 05:48:00,
2013-10-01 06:58:00,50.7,45.1,29.85,South,180,0.9,2.9,81,0.00,,,0.00,WeatherCatV1.21B27,2013-10-01 05:58:00,
2013-10-01 07:08:00,50.7,45.1,29.85,SSW,202,0.0,4.9,81,0.00,,,0.00,WeatherCatV1.21B27,2013-10-01 06:08:00,
2013-10-01 07:18:00,50.7,45.1,29.85,SSE,157,1.1,2.9,81,0.00,,,0.00,WeatherCatV1.21B27,2013-10-01 06:18:00,
2013-10-01 07:28:00,50.7,45.1,29.85,SE,135,0.0,9.8,81,0.00,,,0.00,WeatherCatV1.21B27,2013-10-01 06:28:00,
2013-10-01 07:38:00,50.7,44.8,29.84,SSW,202,2.2,3.8,80,0.00,,,0.00,WeatherCatV1.21B27,2013-10-01 06:38:00,
2013-10-01 07:48:00,50.7,44.8,29.84,WSW,247,3.4,4.5,80,0.00,,,0.00,WeatherCatV1.21B27,2013-10-01 06:48:00,
2013-10-01 07:58:00,50.7,44.8,29.85,South,180,4.0,4.0,80,0.00,,,0.00,WeatherCatV1.21B27,2013-10-01 06:58:00,
2013-10-01 08:08:00,50.9,45.0,29.84,SSW,202,2.2,7.4,80,0.00,,,0.00,WeatherCatV1.21B27,2013-10-01 07:08:00,
2013-10-01 08:18:00,51.1,44.8,29.84,South,180,1.8,3.4,79,0.00,,,0.00,WeatherCatV1.21B27,2013-10-01 07:18:00,
2013-10-01 08:28:00,51.3,45.0,29.85,SE,135,4.5,5.4,79,0.00,,,0.00,WeatherCatV1.21B27,2013-10-01 07:28:00,
2013-10-01 08:38:00,51.4,44.8,29.84,SSE,157,2.2,5.6,78,0.00,,,0.00,WeatherCatV1.21B27,2013-10-01 07:38:00,
2013-10-01 08:48:00,51.4,44.8,29.84,WSW,247,4.0,4.0,78,0.00,,,0.00,WeatherCatV1.21B27,2013-10-01 07:48:00,
2013-10-01 08:58:00,51.4,44.8,29.84,South,180,2.7,3.8,78,0.00,,,0.00,WeatherCatV1.21B27,2013-10-01 07:58:00,
2013-10-01 09:08:00,51.6,45.0,29.85,SSW,202,2.0,4.0,78,0.00,,,0.00,WeatherCatV1.21B27,2013-10-01 08:08:00,
2013-10-01 09:18:00,51.6,44.7,29.85,South,180,5.1,5.1,77,0.00,,,0.00,WeatherCatV1.21B27,2013-10-01 08:18:00,
2013-10-01 09:28:00,51.6,44.7,29.85,South,180,2.0,7.2,77,0.00,,,0.00,WeatherCatV1.21B27,2013-10-01 08:28:00,
2013-10-01 09:38:00,52.0,45.0,29.85,SSE,157,0.0,3.8,77,0.00,,,0.00,WeatherCatV1.21B27,2013-10-01 08:38:00,
2013-10-01 09:48:00,51.6,44.3,29.85,South,180,2.5,5.1,77,0.00,,,0.00,WeatherCatV1.21B27,2013-10-01 08:48:00,
2013-10-01 09:58:00,-999.0,-99.9,29.85,SSE,157,3.1,4.5,77,0.00,,,0.00,WeatherCatV1.21B27,2013-10-01 08:58:00,
2013-10-01 10:08:00,51.8,44.8,29.85,South,180,0.0,5.4,77,0.00,,,0.00,WeatherCatV1.21B27,2013-10-01 09:08:00,
2013-10-01 10:18:00,52.0,45.0,29.85,SSE,157,0.0,4.0,77,0.00,,,0.00,WeatherCatV1.21B27,2013-10-01 09:18:00,
2013-10-01 10:28:00,52.3,45.4,29.85,SSE,157,2.0,3.6,77,0.00,,,0.00,WeatherCatV1.21B27,2013-10-01 09:28:00,
2013-10-01 10:38:00,52.7,45.4,29.85,WSW,247,4.7,5.1,76,0.00,,,0.00,WeatherCatV1.21B27,2013-10-01 09:38:00,
2013-10-01 10:48:00,53.2,45.9,29.86,South,180,0.0,2.5,76,0.00,,,0.00,WeatherCatV1.21B27,2013-10-01 09:48:00,
2013-10-01 10:58:00,53.8,46.4,29.86,SSE,157,0.0,3.4,76,0.00,,,0.00,WeatherCatV1.21B27,2013-10-01 09:58:00,
2013-10-01 11:08:00,54.0,46.2,29.87,South,180,0.9,0.9,75,0.00,,,0.00,WeatherCatV1.21B27,2013-10-01 10:08:00,
2013-10-01 11:18:00,54.0,46.2,29.86,SSE,157,0.0,2.5,75,0.00,,,0.00,WeatherCatV1.21B27,2013-10-01 10:18:00,
2013-10-01 11:28:00,54.1,46.4,29.86,SSE,157,0.0,2.0,75,0.00,,,0.00,WeatherCatV1.21B27,2013-10-01 10:28:00,
2013-10-01 11:38:00,54.3,46.5,29.86,South,180,3.1,3.1,75,0.00,,,0.00,WeatherCatV1.21B27,2013-10-01 10:38:00,
2013-10-01 11:48:00,54.3,46.2,29.86,South,180,0.0,3.1,74,0.00,,,0.00,WeatherCatV1.21B27,2013-10-01 10:48:00,
2013-10-01 11:58:00,54.1,46.4,29.86,SSE,157,0.0,4.0,75,0.00,,,0.00,WeatherCatV1.21B27,2013-10-01 10:58:00,
2013-10-01 12:08:00,54.3,46.5,29.85,SW,225,0.0,4.5,75,0.00,,,0.00,WeatherCatV1.21B27,2013-10-01 11:08:00,
2013-10-01 12:18:00,54.7,46.4,29.85,South,180,2.9,2.9,74,0.00,,,0.00,WeatherCatV1.21B27,2013-10-01 11:18:00,
2013-10-01 12:28:00,54.9,47.0,29.85,SSE,157,2.5,3.8,75,0.00,,,0.00,WeatherCatV1.21B27,2013-10-01 11:28:00,
2013-10-01 12:38:00,55.0,47.2,29.85,South,180,3.4,3.4,75,0.00,,,0.00,WeatherCatV1.21B27,2013-10-01 11:38:00,
2013-10-01 12:48:00,54.9,47.0,29.84,SSW,202,0.0,3.6,75,0.00,,,0.00,WeatherCatV1.21B27,2013-10-01 11:48:00,
2013-10-01 12:58:00,54.9,47.0,29.84,SSW,202,2.2,4.0,75,0.00,,,0.00,WeatherCatV1.21B27,2013-10-01 11:58:00,
2013-10-01 13:08:00,55.2,47.4,29.83,SSW,202,3.1,4.9,75,0.00,,,0.00,WeatherCatV1.21B27,2013-10-01 12:08:00,
2013-10-01 13:18:00,55.6,47.7,29.84,SSE,157,1.8,5.1,75,0.00,,,0.00,WeatherCatV1.21B27,2013-10-01 12:18:00,
2013-10-01 13:28:00,55.9,48.1,29.83,SSE,157,1.6,1.6,75,0.00,,,0.00,WeatherCatV1.21B27,2013-10-01 12:28:00,
2013-10-01 13:38:00,56.1,48.1,29.83,South,180,1.6,1.6,75,0.00,,,0.00,WeatherCatV1.21B27,2013-10-01 12:38:00,
2013-10-01 13:58:00,55.9,48.1,29.83,South,180,0.0,2.5,75,0.00,,,0.00,WeatherCatV1.21B27,2013-10-01 12:58:00,
2013-10-01 14:08:00,55.9,48.1,29.82,SSE,157,0.0,2.9,75,0.00,,,0.00,WeatherCatV1.21B27,2013-10-01 13:08:00,
2013-10-01 14:18:00,56.5,48.6,29.82,SW,225,0.0,5.1,75,0.00,,,0.00,WeatherCatV1.21B27,2013-10-01 13:18:00,
2013-10-01 14:28:00,56.8,48.9,29.82,SSE,157,2.0,2.0,75,0.00,,,0.00,WeatherCatV1.21B27,2013-10-01 13:28:00,
2013-10-01 14:38:00,57.0,48.7,29.81,South,180,2.9,5.4,74,0.00,,,0.00,WeatherCatV1.21B27,2013-10-01 13:38:00,
2013-10-01 14:48:00,57.0,48.7,29.81,SE,135,2.0,6.5,74,0.00,,,0.00,WeatherCatV1.21B27,2013-10-01 13:48:00,
2013-10-01 14:58:00,57.0,48.7,29.81,SE,135,1.6,3.6,74,0.00,,,0.00,WeatherCatV1.21B27,2013-10-01 13:58:00,
2013-10-01 15:08:00,57.0,48.7,29.81,SSE,157,2.7,2.7,74,0.00,,,0.00,WeatherCatV1.21B27,2013-10-01 14:08:00,
2013-10-01 15:18:00,57.0,48.7,29.81,SSE,157,2.2,5.1,74,0.00,,,0.00,WeatherCatV1.21B27,2013-10-01 14:18:00,
2013-10-01 15:28:00,57.2,48.9,29.82,SSW,202,3.4,6.5,74,0.00,,,0.00,WeatherCatV1.21B27,2013-10-01 14:28:00,
2013-10-01 15:38:00,57.0,48.7,29.81,WSW,247,1.1,7.8,74,0.00,,,0.00,WeatherCatV1.21B27,2013-10-01 14:38:00,
2013-10-01 15:48:00,57.0,48.7,29.82,SSE,157,0.0,4.2,74,0.00,,,0.00,WeatherCatV1.21B27,2013-10-01 14:48:00,
2013-10-01 15:58:00,56.8,48.6,29.81,South,180,2.0,3.6,74,0.00,,,0.00,WeatherCatV1.21B27,2013-10-01 14:58:00,
2013-10-01 16:08:00,56.5,48.6,29.81,SE,135,2.2,3.6,75,0.00,,,0.00,WeatherCatV1.21B27,2013-10-01 15:08:00,
2013-10-01 16:18:00,56.3,48.8,29.81,SE,135,2.5,3.8,76,0.00,,,0.00,WeatherCatV1.21B27,2013-10-01 15:18:00,
2013-10-01 16:28:00,56.1,48.6,29.81,South,180,1.6,4.7,76,0.00,,,0.00,WeatherCatV1.21B27,2013-10-01 15:28:00,
2013-10-01 16:38:00,55.9,48.4,29.81,SSE,157,0.0,3.1,76,0.00,,,0.00,WeatherCatV1.21B27,2013-10-01 15:38:00,
2013-10-01 16:48:00,55.9,48.8,29.81,SE,135,2.5,5.8,77,0.00,,,0.00,WeatherCatV1.21B27,2013-10-01 15:48:00,
2013-10-01 16:58:00,55.6,48.4,29.82,South,180,3.8,3.8,77,0.00,,,0.00,WeatherCatV1.21B27,2013-10-01 15:58:00,
2013-10-01 17:08:00,55.2,48.1,29.81,SSE,157,0.0,3.1,77,0.00,,,0.00,WeatherCatV1.21B27,2013-10-01 16:08:00,
2013-10-01 17:18:00,55.2,48.4,29.81,South,180,0.0,3.6,78,0.00,,,0.00,WeatherCatV1.21B27,2013-10-01 16:18:00,
2013-10-01 17:28:00,55.2,48.4,29.81,SSE,157,2.0,2.0,78,0.00,,,0.00,WeatherCatV1.21B27,2013-10-01 16:28:00,
2013-10-01 17:38:00,55.0,48.6,29.82,South,180,0.0,3.1,79,0.00,,,0.00,WeatherCatV1.21B27,2013-10-01 16:38:00,
2013-10-01 17:48:00,55.0,48.6,29.81,SSW,202,0.0,3.1,79,0.00,,,0.00,WeatherCatV1.21B27,2013-10-01 16:48:00,
2013-10-01 17:58:00,54.9,48.4,29.81,SW,225,0.0,4.0,79,0.00,,,0.00,WeatherCatV1.21B27,2013-10-01 16:58:00,
2013-10-01 18:08:00,54.5,48.1,29.82,South,180,2.9,2.9,79,0.00,,,0.00,WeatherCatV1.21B27,2013-10-01 17:08:00,
2013-10-01 18:18:00,54.3,48.0,29.82,West,270,0.9,2.2,79,0.00,,,0.00,WeatherCatV1.21B27,2013-10-01 17:18:00,
2013-10-01 18:28:00,54.1,48.2,29.82,South,180,0.0,6.3,80,0.00,,,0.00,WeatherCatV1.21B27,2013-10-01 17:28:00,
2013-10-01 18:38:00,54.0,48.0,29.82,SSE,157,0.0,5.4,80,0.00,,,0.00,WeatherCatV1.21B27,2013-10-01 17:38:00,
2013-10-01 18:48:00,53.8,47.8,29.81,South,180,0.0,2.5,80,0.00,,,0.00,WeatherCatV1.21B27,2013-10-01 17:48:00,
2013-10-01 18:58:00,53.4,47.8,29.81,SSE,157,1.3,2.9,81,0.00,,,0.00,WeatherCatV1.21B27,2013-10-01 17:58:00,
2013-10-01 19:08:00,53.4,47.8,29.82,SSE,157,0.0,1.1,81,0.00,,,0.00,WeatherCatV1.21B27,2013-10-01 18:08:00,
2013-10-01 19:18:00,53.4,48.1,29.82,SSW,202,0.0,3.8,82,0.00,,,0.00,WeatherCatV1.21B27,2013-10-01 18:18:00,
2013-10-01 19:28:00,53.4,48.1,29.83,WSW,247,0.0,7.6,82,0.00,,,0.00,WeatherCatV1.21B27,2013-10-01 18:28:00,
2013-10-01 19:38:00,53.4,48.1,29.82,SE,135,0.7,3.6,82,0.00,,,0.00,WeatherCatV1.21B27,2013-10-01 18:38:00,
2013-10-01 19:48:00,53.2,47.9,29.82,NNW,337,0.0,0.9,82,0.00,,,0.00,WeatherCatV1.21B27,2013-10-01 18:48:00,
2013-10-01 19:58:00,53.2,47.9,29.83,SSW,202,0.0,3.1,82,0.00,,,0.00,WeatherCatV1.21B27,2013-10-01 18:58:00,
2013-10-01 20:08:00,53.2,47.9,29.82,South,180,2.2,2.5,82,0.00,,,0.00,WeatherCatV1.21B27,2013-10-01 19:08:00,
2013-10-01 20:27:00,52.9,47.9,29.83,West,270,0.0,3.4,83,0.00,,,0.00,WeatherCatV1.21B27,2013-10-01 19:27:00,
2013-10-01 20:38:00,52.9,47.9,29.83,SSW,202,0.0,4.2,83,0.00,,,0.00,WeatherCatV1.21B27,2013-10-01 19:38:00,
2013-10-01 20:48:00,52.7,47.7,29.83,SW,225,1.1,6.3,83,0.00,,,0.00,WeatherCatV1.21B27,2013-10-01 19:48:00,
2013-10-01 20:58:00,52.5,47.5,29.82,SSW,202,1.6,2.9,83,0.00,,,0.00,WeatherCatV1.21B27,2013-10-01 19:58:00,
2013-10-01 21:08:00,52.3,47.6,29.83,SSE,157,2.2,4.9,84,0.00,,,0.00,WeatherCatV1.21B27,2013-10-01 20:08:00,
2013-10-01 21:18:00,52.3,47.6,29.83,South,180,0.9,3.1,84,0.00,,,0.00,WeatherCatV1.21B27,2013-10-01 20:18:00,
2013-10-01 21:28:00,52.3,47.6,29.83,South,180,0.0,2.7,84,0.00,,,0.00,WeatherCatV1.21B27,2013-10-01 20:28:00,
2013-10-01 21:38:00,52.3,47.6,29.83,SSE,157,0.0,2.5,84,0.00,,,0.00,WeatherCatV1.21B27,2013-10-01 20:38:00,
2013-10-01 21:47:00,52.3,47.9,29.83,South,180,2.2,7.4,85,0.00,,,0.00,WeatherCatV1.21B27,2013-10-01 20:47:00,
2013-10-01 21:57:00,52.3,47.9,29.82,South,180,1.8,3.8,85,0.00,,,0.00,WeatherCatV1.21B27,2013-10-01 20:57:00,
2013-10-01 22:08:00,52.3,47.9,29.82,SSE,157,3.4,5.1,85,0.00,,,0.00,WeatherCatV1.21B27,2013-10-01 21:08:00,
2013-10-01 22:17:00,52.2,47.8,29.82,South,180,4.0,5.8,85,0.00,,,0.00,WeatherCatV1.21B27,2013-10-01 21:17:00,
2013-10-01 22:27:00,52.2,47.8,29.83,SSE,157,5.1,5.1,85,0.00,,,0.00,WeatherCatV1.21B27,2013-10-01 21:27:00,
2013-10-01 22:37:00,52.3,47.9,29.82,South,180,4.9,6.7,85,0.00,,,0.00,WeatherCatV1.21B27,2013-10-01 21:37:00,
2013-10-01 22:48:00,52.3,47.9,29.82,SE,135,1.8,4.5,85,0.00,,,0.00,WeatherCatV1.21B27,2013-10-01 21:48:00,
2013-10-01 22:58:00,52.3,47.9,29.83,SSW,202,2.0,9.2,85,0.00,,,0.00,WeatherCatV1.21B27,2013-10-01 21:58:00,
2013-10-01 23:08:00,52.3,47.9,29.83,SSW,202,3.4,3.4,85,0.00,,,0.00,WeatherCatV1.21B27,2013-10-01 22:08:00,
2013-10-01 23:27:00,52.5,48.1,29.83,SSE,157,2.9,4.5,85,0.00,,,0.00,WeatherCatV1.21B27,2013-10-01 22:27:00,
2013-10-01 23:38:00,52.5,48.1,29.83,South,180,0.0,6.0,85,0.00,,,0.00,WeatherCatV1.21B27,2013-10-01 22:38:00,
2013-10-01 23:47:00,52.7,48.3,29.83,South,180,0.0,3.8,85,0.00,,,0.00,WeatherCatV1.21B27,2013-10-01 22:47:00,
2013-10-01 23:58:00,52.7,48.3,29.83,South,180,2.2,2.9,85,0.00,,,0.00,WeatherCatV1.21B27,2013-10-01 22:58:00,